TimeMST,TemperatureF,Dew PointF,Humidity,Sea Level PressureIn,VisibilityMPH,Wind Direction,Wind SpeedMPH,Gust SpeedMPH,PrecipitationIn,Events,Conditions,WindDirDegrees,DateUTC
1:56 AM,23.0,19.0,85,30.05,10.0,SSW,9.2,-,N/A,,Mostly Cloudy,210,2013-02-03 08:56:00
2:56 AM,21.9,19.0,89,30.02,10.0,SSW,12.7,-,N/A,,Clear,210,2013-02-03 09:56:00
3:56 AM,25.0,19.0,78,29.98,10.0,SW,13.8,-,N/A,,Clear,230,2013-02-03 10:56:00
4:56 AM,24.1,18.0,77,29.96,10.0,West,13.8,-,N/A,,Clear,270,2013-02-03 11:56:00
5:56 AM,24.1,18.0,77,29.95,10.0,West,9.2,-,N/A,,Clear,270,2013-02-03 12:56:00
6:56 AM,23.0,18.0,81,29.95,10.0,NNW,4.6,-,N/A,,Clear,340,2013-02-03 13:56:00
7:56 AM,17.1,14.0,88,29.94,10.0,Calm,Calm,-,N/A,,Clear,0,2013-02-03 14:56:00
8:56 AM,21.0,18.0,88,29.91,10.0,Calm,Calm,-,N/A,,Clear,0,2013-02-03 15:56:00
9:56 AM,23.0,19.0,85,29.89,10.0,Calm,Calm,-,N/A,,Partly Cloudy,0,2013-02-03 16:56:00
10:56 AM,26.1,21.9,84,29.86,10.0,SSE,4.6,-,N/A,,Clear,160,2013-02-03 17:56:00
11:56 AM,28.9,21.9,75,29.84,10.0,NE,6.9,-,N/A,,Scattered Clouds,50,2013-02-03 18:56:00
12:56 PM,25.0,21.0,85,29.83,10.0,East,4.6,-,N/A,,Clear,80,2013-02-03 19:56:00
1:56 PM,28.0,21.9,78,29.83,10.0,NE,4.6,-,N/A,,Clear,40,2013-02-03 20:56:00
2:56 PM,27.0,21.9,81,29.85,10.0,NNE,8.1,-,N/A,,Clear,30,2013-02-03 21:56:00
3:56 PM,24.1,19.0,81,29.86,10.0,NNE,5.8,-,N/A,,Clear,30,2013-02-03 22:56:00
4:56 PM,21.0,17.1,85,29.89,10.0,NNE,8.1,-,N/A,,Clear,30,2013-02-03 23:56:00
5:56 PM,17.1,14.0,88,29.93,10.0,NNE,8.1,-,N/A,,Mostly Cloudy,30,2013-02-04 00:56:00
6:34 PM,19.4,15.8,86,29.83,10.0,NNE,5.8,-,N/A,,Overcast,30,2013-02-04 01:34:00
6:56 PM,19.9,16.0,85,29.95,10.0,Calm,Calm,-,N/A,,Overcast,0,2013-02-04 01:56:00
7:53 PM,19.4,15.8,86,29.85,10.0,Calm,Calm,-,N/A,,Overcast,0,2013-02-04 02:53:00
7:56 PM,19.0,16.0,88,29.98,10.0,NW,3.5,-,N/A,,Overcast,320,2013-02-04 02:56:00
8:56 PM,19.0,16.0,88,29.98,10.0,Calm,Calm,-,N/A,,Overcast,0,2013-02-04 03:56:00
9:56 PM,19.0,16.0,88,29.97,10.0,Calm,Calm,-,N/A,,Overcast,0,2013-02-04 04:56:00
10:56 PM,19.9,17.1,89,29.97,6.0,WNW,4.6,-,N/A,,Overcast,290,2013-02-04 05:56:00
11:56 PM,19.9,18.0,92,29.96,6.0,Calm,Calm,-,N/A,,Overcast,0,2013-02-04 06:56:00